Date,TemperatureHighF,TemperatureAvgF,TemperatureLowF,DewpointHighF,DewpointAvgF,DewpointLowF,HumidityHigh,HumidityAvg,HumidityLow,PressureMaxIn,PressureMinIn,WindSpeedMaxMPH,WindSpeedAvgMPH,GustSpeedMaxMPH,PrecipitationSumIn
2013-3-1,70,56,47,58,50,46,100,82,50,30.45,30.25,7,2,11,0.01
2013-3-2,68,56,50,54,50,48,94,82,58,30.26,30.09,11,2,17,0.00
2013-3-3,57,51,48,52,48,45,95,91,80,30.12,30.06,13,3,22,0.00
2013-3-4,54,48,44,46,44,41,94,87,70,30.17,30.08,10,2,16,0.00
2013-3-5,56,49,42,47,43,40,93,80,67,30.09,29.85,17,3,22,0.12
2013-3-6,54,50,44,49,45,42,95,83,67,30.09,29.85,15,4,18,0.15
2013-3-7,55,48,43,46,43,40,94,86,59,30.01,29.88,9,1,13,0.07
2013-3-8,55,49,45,47,44,41,95,84,73,30.06,29.85,20,4,22,0.00
2013-3-9,62,52,43,48,45,40,92,78,51,30.32,30.06,11,3,19,0.00
2013-3-10,66,53,46,51,46,43,94,78,50,30.37,30.27,14,2,19,0.00
2013-3-11,71,53,45,51,47,42,96,82,38,30.28,30.12,18,4,20,0.01
2013-3-12,68,52,46,55,49,46,98,89,59,30.18,30.09,15,5,22,0.00
2013-3-13,74,56,45,56,50,44,97,82,48,30.18,30.08,9,2,14,0.02
2013-3-14,59,51,47,53,48,46,96,89,75,30.19,30.10,17,5,22,0.00
2013-3-15,68,53,48,54,49,46,96,87,59,30.16,30.06,16,4,22,0.00
2013-3-16,63,52,48,55,48,46,100,87,70,30.14,30.05,13,4,21,0.00
2013-3-17,63,53,48,48,45,43,89,77,51,30.17,30.06,15,4,22,0.00
2013-3-18,64,51,46,49,46,44,94,84,54,30.14,30.06,13,4,22,0.00
2013-3-19,66,52,47,51,46,42,93,81,44,30.15,30.07,10,1,17,0.10
2013-3-20,59,53,48,54,51,46,98,93,75,30.16,30.08,11,1,12,0.09
2013-3-21,60,51,42,48,44,40,98,80,56,30.16,30.04,12,2,17,0.01
2013-3-22,64,53,45,44,39,23,87,63,24,30.14,30.05,14,3,17,0.00
2013-3-23,68,54,47,45,40,28,88,62,24,30.16,30.07,11,3,18,0.00
2013-3-24,63,51,47,50,46,44,94,85,60,30.11,29.99,18,6,25,0.00
2013-3-25,54,49,46,46,45,44,93,86,73,30.05,29.95,14,4,22,0.00
2013-3-26,57,51,47,49,46,44,95,83,71,30.03,29.96,14,3,22,0.00
2013-3-27,60,54,48,54,51,47,96,90,80,30.03,29.97,12,3,17,0.00
2013-3-28,65,56,53,56,53,51,97,89,73,30.11,30.02,10,2,15,0.00
2013-3-29,73,56,49,57,51,48,97,85,52,30.10,30.04,15,2,18,0.01
2013-3-30,67,56,51,56,52,50,98,88,59,30.09,29.99,14,3,20,0.11
2013-3-31,64,57,52,56,54,51,96,88,70,30.08,30.01,9,1,12,0.11